Hourly Data Report for March 04, 2012

All times are specified in Local Standard Time (LST). Add 1 hour to adjust for Daylight Saving Time where and when it is observed.

MIRAMICHI RCS
NEW BRUNSWICK

47°00'34.000" N
65°27'54.000" W
33.00 m
8100989
71744
ACQ

Download Data

Hourly Data (March 2012)
Hourly Data Report for March 4, 2012
TIME Temp Definition
°C
Dew Point Temp Definition
°C
Rel Hum Definition
%
Wind Dir Definition
10's deg

Wind Spd Definition
km/h
Visibility Definition
km
Stn Press Definition
kPa
Hmdx Definition


Wind Chill Definition


Weather Definition


00:00 -3.2 -4.3 92 23 17   98.71   -9 LegendNANA
01:00 -2.8 -3.8 93 24 13   98.73   -7 LegendNANA
02:00 -1.8 -3.4 89 24 13   98.77   -6 LegendNANA
03:00 -2.9 -3.8 93 23 13   98.80   -8 LegendNANA
04:00 -1.8 -3.0 91 23 17   98.83   -7 LegendNANA
05:00 -0.6 -2.5 87 22 24   98.89   -7 LegendNANA
06:00 -0.6 -2.7 86 23 22   98.99   -6 LegendNANA
07:00 -0.4 -2.2 88 23 22   99.13   -6 LegendNANA
08:00 0.0 -2.3 84 23 17   99.22   -5 LegendNANA
09:00 0.9 -2.3 79 24 19   99.32     LegendNANA
10:00 1.8 -1.8 77 23 26   99.39     LegendNANA
11:00 2.7 -2.8 67 24 19   99.38     LegendNANA
12:00 3.0 -3.1 64 25 22   99.50     LegendNANA
13:00 2.7 -3.3 65 23 17   99.54     LegendNANA
14:00 2.8 -2.9 66 24 17   99.48     LegendNANA
15:00 2.8 -3.2 65 25 13   99.56     LegendNANA
16:00 2.4 -2.7 69 21 9   99.55     LegendNANA
17:00 2.7 -3.5 64 24 9   99.58     LegendNANA
18:00 2.3 -3.1 67 27 6   99.63     LegendNANA
19:00 1.0 -2.7 76 34 2   99.63     LegendNANA
20:00 0.2 -1.9 86   0   99.68     LegendNANA
21:00 0.1 -2.0 86   0   99.73     LegendNANA
22:00 -0.8 -2.6 88 5 4   99.72   -2 LegendNANA
23:00 -0.5 -2.8 84 2 6   99.63   -3 LegendNANA

Notes on Data Quality.

Legend

  • E = Estimated
  • M = Missing
  • NA = Not Available
Date modified: